Showing default

OPS 0856, 2403

Orbit data source: Space-Track

OPS 0856, 2403 is a payload satellite owned by USAF SSD (US) in LEO that was launched on Fri, 19 Aug 1966 UTC via an ATLAS SLV-3 AGENA D launch vehicle from the Air Force Western Test Range (AFWTR). Payload-class satellites include a variety of spacecraft equipped with specific instruments for various scientific and technological missions. These include communications satellites like Starlink; space stations such as the ISS; scientific satellites like the Hubble; Earth observation satellites from companies like Planet Labs, Umbra, and HawkEye 360; GPS; miniature CubeSats for education and research; and military/defense satellites.

Loading next visibility...
Identifier
2403, 1966-077A
Orbit
LEO
Country
Flag of USUS
Related business
Manufacturer
LMSC
Mission
Defense Early Warn
Bus & Motor
MIDAS, Unknown motor
Mass
~2,000 kg wet, ~1,000 kg dry
Launch date (UTC)
1966-08-19 (59 years ago)
Launch vehicle
ATLAS SLV-3 AGENA D
Launch site
Air Force Western Test Range (AFWTR)
Object type
Payload
Rocket body
Debris
Shape & HBR
Cone + Cyl + 2 Pan, 1.5 m
Radar Cross Section
4.418 m², Large (>1 m²)

Expand to show TLE details & history
Last TLE update: 14 hours ago

TLE from 14 hours ago
0 OPS 0856
1 02403U 66077A   25258.45440129 -.00000028  00000-0 -14727-1 0  9990
2 02403  90.3285 273.1817 0008790   1.0011 359.0857  8.59850353502846
Epoch: 2025-09-15T10:54Z
TLE epoch observation values (Epoch: 2025-09-15T10:54:20.271Z)
Latitude
-0.00003°
Longitude
114.93842°
Altitude
3,679.573 km
Speed
6.299 km/s
True Right ascension
18h 12m 43s
True Declination
0° 00' 00"
Sunlit
Object was in daylight at epoch
Visualization orbit readout
Latitude
Unknown
Longitude
Unknown
Altitude
Unknown
Speed
Unknown
Apparent Right ascension
Unknown
Apparent Declination
Unknown
Sunlit
N/A
Visualization observer readout
Local Sidereal Time
17:11:51
Azimuth
Unknown
Elevation
Unknown
Doppler factor
Unknown
Orbital elements
Apogee altitude
3,692.896 km
Perigee altitude
3,675.207 km
Semi-major axis
10,062.189 km
Eccentricity
0.00088
Inclination
90.3285°
RAAN
273.1817°
Arg. of periapsis
1.0011°
True anomaly
359.08409°
Mean anomaly
359.0857°
Eccentric anomaly
359.0849°
Mean motion
2.15033 °/min
Orbital period
167.42 mins
BSTAR
-0.014727
Loading maneuver chart data...
Computing Atmospheric mass density...
Loading historical data...
Loading historical data...
Loading historical data...
Loading historical data...
Loading historical data...
Loading historical data...
Loading historical data...

Documentation

Showing up to 5 results
|